Location: Winthrop
(48.4780°N, 120.1850°W)
Time: 20:23:37
(UTC-07:00)

Envisat - Visible Passes

Search period start: 21 March 2023 00:00
Search period end: 31 March 2023 00:00
Orbit: 763 x 765 km, 98.2° (Epoch: 21 March)

Date Brightness Start Highest point End Pass type
(mag) Time Alt. Az. Time Alt. Az. Time Alt. Az.
21 Mar 5.9 03:27:52 10° ENE 03:28:34 10° E 03:29:16 10° E visible
21 Mar 3.2 05:03:22 10° NNE 05:08:28 73° ESE 05:13:26 11° S visible
22 Mar 4.4 04:26:34 10° NNE 04:31:13 35° E 04:35:51 10° SSE visible
22 Mar 3.7 06:05:37 10° N 06:10:12 35° WNW 06:14:46 10° SW visible
23 Mar 5.5 03:50:24 10° NE 03:53:47 18° E 03:57:08 10° SE visible
23 Mar 2.9 05:28:13 10° N 05:33:18 70° WNW 05:38:20 10° SSW visible
24 Mar 3.5 04:51:10 10° NNE 04:56:12 58° E 05:01:11 10° S visible
25 Mar 4.8 04:14:30 10° NE 04:18:53 28° E 04:23:13 10° SSE visible
25 Mar 3.4 05:53:14 10° N 05:58:03 43° WNW 06:02:49 10° SW visible
26 Mar 5.7 03:38:48 10° NE 03:41:22 14° E 03:43:56 10° ESE visible
26 Mar 2.9 05:15:57 10° NNE 05:21:03 87° WNW 05:26:09 10° SSW visible
27 Mar 4.0 04:39:00 10° NNE 04:43:53 46° E 04:48:45 10° S visible
28 Mar 5.1 04:02:32 10° NE 04:06:31 23° E 04:10:28 10° SE visible
28 Mar 3.2 05:40:53 10° N 05:45:50 54° WNW 05:50:46 10° SW visible
29 Mar 5.9 03:27:51 10° ENE 03:28:55 11° E 03:29:58 10° E visible
29 Mar 3.1 05:03:41 10° NNE 05:08:48 75° ESE 05:13:52 10° S visible
30 Mar 4.4 04:26:52 10° NNE 04:31:34 36° E 04:36:13 10° SSE visible
30 Mar 3.7 06:05:57 10° N 06:10:31 34° WNW 06:15:04 10° SW visible
